Theta_e
326 328 329 331 330 332 336 340 337 339 339 343 342 343 344 345 342 339 344 348 347 342 341 339 335 340 342 339 342 345 345 346 346 348 348 348 348 348 347 347 347 347 345 345 344 343 344 342 343 342 341 339 339 338 340 340 340 339 338 338 336 335 336 337 337 338 334 332 334 334 335 338 341 342 341 339 340 340 341 340 340 339 338 341 343
328 328 330 329 331 330 330 333 332 328 335 339 341 343 345 338 335 335 342 342 341 340 340 339 339 340 338 339 343 343 344 343 343 346 346 348 348 345 346 345 344 344 343 343 343 342 340 339 339 338 339 339 339 339 339 338 339 338 337 335 337 334 334 335 335 334 330 328 328 329 330 333 335 336 337 337 341 342 340 340 340 339 340 340 341
327 328 329 328 329 330 332 332 331 333 332 334 337 336 337 335 335 338 342 340 339 337 337 336 338 339 337 342 345 344 347 347 344 344 346 346 346 345 345 344 342 342 341 341 340 340 340 339 339 339 339 338 336 336 337 337 336 336 336 333 331 334 333 335 335 336 330 331 332 328 324 323 328 330 335 338 340 339 340 337 338 340 339 338 337
323 324 326 329 330 332 331 330 331 332 330 331 335 338 339 337 341 341 340 341 338 336 338 339 337 341 339 343 344 344 343 344 344 344 345 344 342 343 343 342 339 340 340 339 339 338 339 338 338 337 337 338 336 334 334 333 336 334 334 334 333 330 329 332 335 335 333 330 323 324 324 323 319 323 328 334 340 334 335 337 339 339 335 333 334
324 326 328 330 330 331 331 331 333 333 331 333 335 337 339 338 338 340 339 341 342 339 338 337 339 340 342 344 344 342 342 341 341 340 341 340 340 341 340 340 339 339 339 338 337 337 337 337 336 337 336 336 336 334 333 333 333 333 333 333 333 330 329 331 333 335 334 334 329 324 323 320 320 323 325 326 331 331 339 339 339 339 336 334 336
328 327 328 330 332 332 331 332 332 331 331 336 336 337 339 337 340 340 340 341 338 339 337 337 339 335 339 337 337 338 337 338 337 337 338 338 338 340 341 339 338 338 338 336 337 335 336 336 337 335 335 335 335 334 334 334 334 333 333 333 332 334 332 330 330 334 334 334 334 335 328 320 321 325 324 318 329 331 330 337 339 338 335 331 332
331 331 330 330 331 330 330 332 332 332 332 336 337 338 337 339 339 340 340 340 337 337 338 337 336 334 340 339 339 338 336 338 340 340 339 338 340 339 338 338 336 336 336 336 336 336 336 336 336 336 335 335 335 335 333 335 333 333 334 333 333 334 333 329 330 330 332 335 335 336 336 332 330 326 320 323 319 325 329 330 335 338 336 333 331
330 331 330 331 332 331 332 333 332 332 333 335 335 337 337 338 339 340 340 340 340 339 338 337 335 337 340 340 340 338 338 337 339 339 339 339 338 337 336 336 336 334 334 335 335 335 335 335 336 336 334 335 333 333 333 334 334 335 336 336 335 334 333 331 330 332 331 330 334 334 335 333 330 328 327 325 320 318 321 328 333 334 337 337 337
333 332 331 331 331 333 333 331 333 332 333 334 334 335 336 337 338 340 341 340 342 342 341 340 337 341 340 340 337 338 339 338 338 338 338 338 336 336 335 334 335 334 334 335 334 334 334 335 335 335 334 335 334 335 334 335 334 334 334 334 334 334 333 334 334 332 332 330 330 330 331 329 330 331 330 328 321 319 320 322 323 332 334 334 337
332 334 332 333 334 335 335 334 334 335 337 337 335 335 337 337 335 338 338 339 339 340 339 340 342 342 340 339 338 337 337 337 338 337 336 335 334 334 334 333 333 334 335 335 335 334 334 335 335 335 335 334 334 334 334 335 334 334 335 335 335 334 334 334 333 334 334 333 332 330 329 329 328 327 326 326 326 325 318 319 322 323 323 329 337
330 332 334 335 335 336 336 335 335 336 337 333 331 330 333 333 332 336 336 338 338 336 335 336 338 340 338 339 338 337 337 337 334 334 332 332 331 331 331 331 333 333 333 334 333 334 334 334 333 334 335 334 334 333 332 332 333 334 335 336 335 333 333 334 334 335 333 332 333 330 328 328 326 325 325 326 323 320 320 322 325 326 324 323 331
331 331 330 334 334 334 336 335 335 333 333 332 332 331 333 334 334 334 333 336 335 336 336 338 338 338 339 338 336 336 335 334 332 331 331 331 331 330 330 330 331 332 331 332 333 333 333 333 333 333 333 333 331 332 332 332 333 334 334 333 333 334 334 333 334 332 334 331 331 331 330 329 327 328 327 329 327 323 321 320 322 326 325 324 327
329 330 332 332 332 332 333 334 335 334 332 332 332 332 332 333 333 334 333 334 336 336 337 338 338 337 336 336 335 335 334 333 331 331 331 329 329 329 329 328 330 330 330 331 331 331 331 331 332 331 330 331 331 330 331 332 333 333 333 334 333 332 332 333 332 333 332 332 332 332 332 331 331 329 332 330 327 325 322 320 322 325 322 323 326
329 330 332 331 332 332 334 334 334 331 330 331 333 333 333 332 332 332 332 335 335 336 336 336 337 337 336 335 334 334 333 332 331 331 331 329 330 329 328 327 328 329 330 329 329 329 330 330 330 330 330 329 329 330 331 332 332 332 333 333 333 333 332 333 333 332 332 331 331 329 329 329 330 332 330 330 329 325 322 321 322 323 323 322 325
327 330 330 331 332 333 333 335 334 331 332 332 332 334 333 331 332 332 332 333 336 335 335 334 334 335 335 334 333 333 332 331 330 329 330 329 329 328 328 328 328 329 328 329 328 328 328 329 329 328 328 328 328 329 330 331 332 333 333 331 330 330 331 331 330 330 328 328 328 327 326 327 328 328 328 328 330 329 327 324 322 317 320 322 321
329 329 331 331 332 333 334 335 335 332 334 334 334 336 335 334 332 334 333 334 333 334 334 333 333 333 333 333 333 332 330 329 328 328 329 330 328 327 327 328 328 328 328 327 327 327 327 328 328 327 327 327 328 327 328 329 331 330 329 328 328 328 329 328 327 326 325 326 326 326 325 325 326 325 326 326 327 329 331 330 327 324 319 316 319
330 330 331 331 332 333 333 334 334 332 333 335 335 335 335 333 333 332 332 333 333 333 333 332 332 331 331 331 330 330 329 327 326 327 327 327 327 326 327 327 327 327 326 327 327 327 327 327 326 326 326 327 327 327 327 328 328 327 327 326 326 328 328 327 325 325 325 324 323 323 323 323 323 325 326 326 326 326 327 328 329 324 324 319 317
330 331 331 331 332 332 334 335 335 335 334 335 336 336 336 335 333 332 331 330 331 332 331 331 329 330 329 328 328 328 327 327 327 327 327 326 326 326 327 325 325 326 326 327 327 326 326 326 325 325 326 326 326 326 327 327 327 326 326 326 326 327 326 326 324 324 324 324 323 323 323 322 323 323 323 324 325 324 325 325 326 327 327 321 318
329 330 330 330 331 331 332 333 335 335 335 335 335 335 335 334 334 332 331 331 331 331 331 330 330 328 327 327 327 327 327 326 326 326 326 325 325 325 324 324 325 325 325 325 325 325 325 325 325 325 326 325 325 325 326 326 326 325 325 324 324 325 323 322 323 323 323 322 321 321 322 321 322 322 322 323 323 324 323 324 325 325 327 325 321
328 328 328 330 330 331 332 333 334 334 334 334 334 334 333 332 331 330 330 330 330 330 329 328 327 326 326 326 325 325 325 326 325 325 323 323 324 323 323 323 323 323 324 324 325 325 325 325 325 325 325 325 324 324 324 324 324 323 322 322 322 322 321 321 321 321 321 321 320 320 320 320 321 321 321 322 322 322 323 323 323 323 323 328 327
328 328 328 328 329 331 332 333 333 334 333 333 333 332 331 330 330 330 329 328 328 328 327 326 326 325 325 324 324 324 324 324 324 323 323 322 322 323 323 323 322 322 324 324 324 324 324 324 324 323 323 324 323 323 323 323 322 322 321 321 321 321 320 320 320 320 320 320 319 318 318 319 320 320 319 321 320 321 322 322 322 321 321 323 324
329 328 328 329 330 331 332 332 332 332 331 331 332 330 329 329 329 329 328 328 327 326 325 325 325 325 323 323 323 323 323 323 323 322 322 322 322 322 322 322 321 322 323 323 323 324 324 323 322 322 322 322 322 321 321 322 320 320 321 321 320 320 319 319 319 318 318 318 318 317 317 317 319 318 319 319 319 320 321 320 320 320 320 321 325
328 328 328 330 330 329 330 329 329 329 330 331 330 328 328 328 328 327 326 326 326 324 324 324 323 323 322 322 322 323 323 322 322 322 321 321 321 321 321 321 321 321 322 323 323 323 322 322 321 320 321 321 321 321 321 321 320 319 319 320 319 319 318 318 317 317 317 317 316 316 315 316 317 317 317 318 319 319 320 320 319 320 319 321 322
328 328 328 328 329 329 328 327 327 328 328 328 327 327 327 327 326 326 324 324 324 323 323 322 322 321 321 321 321 322 321 321 320 320 320 320 320 321 321 321 321 321 321 322 322 322 321 321 320 320 320 320 320 320 320 320 319 319 318 318 319 319 318 318 317 316 316 315 314 314 314 315 315 314 314 315 316 318 318 319 319 318 319 318 319
327 326 326 327 326 325 324 325 325 326 326 326 326 326 326 326 325 324 323 324 323 322 321 320 320 320 320 320 321 321 320 319 319 319 319 320 320 320 320 320 321 321 321 322 321 321 321 320 320 319 319 319 319 319 319 319 319 319 319 318 318 318 318 317 317 317 316 314 313 312 312 313 313 311 311 311 313 314 314 315 316 317 317 319 319
325 325 325 324 324 324 324 324 324 325 325 326 325 325 324 324 324 324 322 322 321 321 320 319 319 318 318 319 319 319 318 318 318 318 319 319 319 319 319 320 320 320 320 320 320 320 319 318 318 317 318 317 317 317 317 317 318 318 318 318 318 317 317 317 316 316 315 314 313 312 312 312 311 310 309 310 311 311 312 311 312 314 316 317 317
324 323 324 325 324 324 323 323 323 324 324 324 324 323 323 322 322 322 321 321 320 319 318 318 318 318 317 318 318 318 317 317 317 317 318 318 318 319 319 319 320 320 319 319 319 318 318 317 317 317 315 315 314 314 314 315 317 317 317 316 316 316 316 316 315 315 315 314 314 313 312 312 310 310 310 309 309 309 309 309 309 311 314 315 314
324 324 323 323 324 323 322 322 322 322 323 323 323 322 321 321 320 320 320 319 318 318 317 317 317 317 317 317 317 317 317 317 317 317 318 318 318 318 318 319 319 319 318 318 317 316 317 316 315 314 313 313 312 310 309 310 312 316 315 315 315 315 315 315 315 314 314 314 314 312 312 311 311 309 309 310 310 309 308 307 307 309 309 311 312
322 323 323 323 322 322 322 321 321 322 321 322 320 319 320 320 320 319 319 317 317 316 316 316 316 316 316 317 318 318 317 316 316 316 317 317 318 319 318 318 318 318 318 318 318 316 315 314 313 313 312 311 310 308 306 305 307 311 314 313 312 312 312 313 313 312 311 311 312 313 312 311 312 309 305 304 304 306 308 306 306 307 307 308 309
322 322 322 323 323 321 321 321 321 320 320 320 319 319 319 318 317 317 317 317 316 316 316 315 314 315 316 317 317 317 317 317 316 316 316 317 317 318 318 317 317 317 317 317 316 315 314 312 311 310 310 310 308 307 300 296 298 305 313 311 311 311 310 310 310 310 310 309 308 309 311 311 310 308 305 300 299 300 303 306 307 306 305 305 306
323 322 322 322 322 321 320 319 319 319 319 319 320 319 319 319 318 316 315 315 315 315 314 314 313 314 316 317 316 316 316 315 316 316 317 317 317 317 317 316 316 316 316 316 315 313 312 312 310 309 308 308 307 303 294 294 294 295 308 311 309 309 309 309 309 308 308 308 308 308 309 310 310 310 310 298 298 297 297 298 298 300 302 306 305
321 322 322 321 320 320 321 319 319 319 318 317 317 315 315 315 315 316 316 316 314 313 313 313 314 315 316 316 316 316 316 316 316 316 316 316 316 316 315 315 315 315 315 315 313 312 312 311 310 309 308 307 306 296 292 293 294 293 296 308 309 308 307 307 308 308 308 307 307 307 308 309 310 309 309 310 307 298 297 297 297 297 297 296 297
321 320 320 320 318 317 317 317 318 317 316 316 315 313 312 313 312 314 313 313 313 313 313 314 315 316 316 317 316 316 316 316 316 316 316 316 315 315 314 314 314 315 314 312 312 311 310 309 309 307 307 306 306 294 292 292 293 292 293 301 308 307 305 305 306 307 307 307 306 306 306 307 308 308 307 305 307 310 299 296 297 299 299 298 295
321 320 319 318 316 317 317 318 317 316 315 316 315 314 313 314 313 313 312 312 312 312 314 314 315 316 316 317 316 315 315 315 315 315 315 314 314 313 314 314 313 313 312 311 310 310 309 308 307 307 306 306 304 294 292 292 293 292 292 297 310 307 305 304 304 305 306 306 306 305 304 304 306 306 304 301 304 309 310 310 309 308 308 306 300
320 318 317 317 318 318 318 317 316 316 317 316 315 315 314 314 314 313 313 313 313 313 313 314 315 316 316 316 316 315 315 314 314 314 314 314 313 313 312 312 312 311 310 309 309 309 308 308 307 306 305 304 303 291 292 291 292 292 291 298 310 309 306 305 304 303 303 304 305 305 304 303 303 304 300 296 300 305 309 309 309 308 307 308 308
320 318 317 317 317 317 317 318 318 318 317 317 315 315 314 313 314 313 313 313 313 313 313 314 314 315 315 315 315 315 314 314 313 313 313 312 312 312 311 311 311 310 310 309 309 309 307 307 306 306 304 303 302 291 291 291 291 292 293 308 308 308 307 306 304 303 302 302 303 303 303 302 303 301 296 291 294 302 309 308 307 307 306 306 309
320 319 317 318 318 319 319 319 319 318 317 316 316 315 314 313 313 313 313 313 313 312 313 314 314 314 314 315 315 314 313 313 313 312 311 311 310 309 310 310 310 309 309 308 308 308 307 306 305 304 303 302 302 295 290 291 291 291 298 310 308 306 306 306 305 304 302 301 301 301 301 301 301 300 294 290 292 297 308 307 307 306 306 305 305
319 319 319 318 319 319 319 319 319 318 317 316 315 314 313 313 312 313 313 313 312 312 313 314 314 314 314 315 314 314 312 312 312 311 310 310 309 308 308 309 308 307 306 306 307 306 306 305 304 304 303 301 301 297 291 291 291 291 296 309 307 307 306 305 305 305 304 302 301 299 300 299 299 298 291 291 291 301 306 306 306 305 304 304 304
321 320 319 320 319 319 318 318 317 315 316 317 316 315 313 312 312 312 312 312 312 313 313 313 313 314 314 314 314 313 312 312 310 310 310 308 308 307 308 308 307 307 307 306 306 305 305 305 305 304 303 302 301 298 292 291 291 292 297 308 306 305 305 305 304 303 304 303 302 301 298 295 296 295 290 291 291 298 305 304 304 303 302 302 305
320 321 320 319 318 317 317 316 315 315 316 316 315 314 313 311 311 311 311 311 312 313 313 313 314 314 313 313 313 313 312 311 309 309 309 308 307 307 307 307 307 306 305 305 305 305 305 305 305 305 304 304 302 300 296 290 291 292 292 304 308 305 303 303 303 302 302 302 302 301 299 293 290 290 291 290 291 291 303 303 303 302 301 301 305
319 319 313 318 317 316 315 315 315 316 316 315 314 313 311 311 311 310 309 311 312 313 313 313 313 313 312 312 312 311 310 309 309 308 307 307 307 307 307 307 306 306 306 305 304 304 303 302 301 301 300 301 302 301 299 290 291 291 291 296 307 305 305 303 303 301 301 300 300 300 300 295 290 291 291 291 292 291 294 303 302 301 301 300 300
318 315 316 316 316 316 316 316 316 315 315 315 314 311 310 310 310 309 309 311 312 313 313 313 312 312 312 311 311 310 310 309 308 307 307 306 307 308 307 306 306 306 305 305 305 304 302 301 302 301 301 300 299 298 300 294 291 291 291 291 301 304 302 304 302 301 300 301 300 299 300 296 290 291 290 291 292 292 293 301 301 292 292 292 308
315 317 317 316 315 315 314 314 314 315 315 314 314 311 310 309 309 309 309 310 311 312 312 312 311 311 311 310 309 309 308 307 307 307 306 306 306 306 306 306 306 305 304 303 303 303 302 301 302 301 301 300 300 298 294 297 292 291 291 292 291 297 293 305 302 300 300 300 301 301 300 296 291 291 290 291 292 292 296 299 291 291 292 293 298
316 316 316 316 315 314 313 313 314 315 315 314 312 310 309 308 308 310 310 310 311 312 311 310 310 310 309 308 307 307 308 308 307 306 306 305 305 305 305 306 305 304 303 302 302 302 302 301 300 300 300 300 300 299 295 293 295 290 291 291 291 291 292 301 301 300 300 300 300 300 299 291 291 291 291 291 293 293 298 291 292 292 293 296 302
314 314 314 315 314 313 313 313 314 314 314 313 312 310 308 307 308 310 308 308 309 309 309 308 308 308 307 306 307 306 306 306 306 305 304 304 304 305 304 305 305 304 303 302 302 302 301 300 300 300 300 300 300 299 299 295 291 292 291 291 291 291 291 293 300 300 300 300 295 291 290 291 291 292 293 295 295 295 293 291 292 293 298 300 301
315 314 314 314 313 313 312 312 312 313 313 313 312 310 307 307 309 310 310 310 309 308 307 307 307 306 305 305 305 305 305 305 305 304 304 304 304 303 303 304 304 303 303 302 301 300 300 301 300 301 301 302 303 302 301 300 297 296 294 292 292 292 293 294 296 297 293 292 292 292 291 292 294 296 303 301 301 301 294 293 294 296 301 299 299
313 313 313 312 312 311 311 312 311 312 313 312 312 310 309 309 309 310 310 310 309 307 306 306 305 304 304 304 304 303 302 303 304 303 304 304 304 304 303 302 303 302 303 301 301 300 300 299 299 300 300 301 303 303 303 303 303 302 301 298 299 298 293 292 299 301 297 301 300 299 299 294 293 292 292 294 297 297 299 300 301 301 301 300 299
314 315 313 312 312 312 311 311 311 312 312 311 311 309 309 310 310 310 310 309 307 306 305 304 303 303 303 303 302 296 299 301 302 303 303 303 303 304 303 302 301 302 301 300 300 299 299 299 298 298 299 299 299 300 300 299 298 297 300 302 302 302 303 302 301 301 302 303 302 297 298 304 304 302 302 302 301 302 300 299 300 300 300 300 298
312 312 312 311 312 312 313 312 311 312 311 310 310 310 310 311 311 310 309 307 305 303 303 303 302 303 302 302 302 302 302 302 303 300 298 297 300 305 303 300 298 297 298 303 303 302 301 301 300 299 298 297 297 296 295 290 292 289 291 297 299 299 300 300 296 290 296 301 301 299 299 298 299 294 296 299 299 300 298 300 300 300 300 299 300
312 312 312 313 313 313 312 312 312 312 311 310 309 310 309 309 309 311 307 304 302 302 301 300 300 301 300 300 301 301 301 302 302 300 298 296 289 289 294 299 296 290 289 289 292 297 301 303 298 296 299 298 296 295 288 288 288 288 288 288 288 289 288 293 291 289 293 296 297 296 295 295 296 296 295 295 296 298 298 297 298 295 298 299 298
311 310 311 311 311 311 311 311 311 311 310 309 309 308 309 308 307 306 304 303 301 300 299 299 299 299 298 300 300 301 301 302 301 300 300 297 295 294 289 287 289 290 289 289 289 290 289 290 297 295 293 288 288 288 288 288 288 289 288 288 288 288 289 289 288 291 295 294 294 293 294 294 294 294 292 293 294 295 295 295 296 297 298 298 296
Wind_Speed
6 11 10 9 10 10 8 5 6 7 4 6 9 9 9 8 7 6 2 4 4 5 4 3 1 2 3 5 6 5 5 5 5 5 5 5 5 5 4 3 3 3 2 3 3 3 4 4 5 5 5 6 6 7 8 9 9 9 9 8 10 11 10 9 9 9 10 11 10 11 11 11 11 11 12 12 12 10 8 11 11 9 11 10 6
5 7 11 11 6 8 8 5 9 6 4 3 5 5 5 8 6 2 3 3 3 5 4 2 1 3 4 7 5 8 7 6 6 5 5 5 5 5 4 3 3 4 4 4 3 4 4 4 5 5 6 6 6 7 8 8 9 9 9 9 8 10 10 9 9 9 8 9 11 11 10 10 10 11 11 11 10 4 6 9 10 9 9 9 6
8 9 9 7 8 8 9 11 11 8 5 2 3 4 6 6 6 7 5 5 3 3 1 3 1 7 6 6 7 4 5 6 6 6 6 6 5 5 4 4 3 3 3 3 3 3 4 4 5 4 5 6 6 7 7 8 8 9 9 9 10 9 10 9 9 7 9 9 10 11 10 11 9 8 7 8 7 6 4 7 8 7 7 8 10
14 14 14 12 10 9 9 11 9 9 8 3 1 6 5 6 6 7 6 6 5 4 2 2 3 7 10 9 5 5 7 7 7 6 6 5 5 4 4 3 3 3 3 3 3 4 4 5 5 5 6 6 6 6 7 8 8 8 9 9 9 10 9 10 10 9 8 9 9 7 11 11 12 7 7 4 5 9 11 11 9 6 7 9 8
14 14 16 16 15 12 12 10 6 5 8 5 6 6 5 9 7 6 7 6 5 7 3 3 3 9 7 2 7 7 6 6 6 5 4 4 4 4 4 3 3 3 4 4 5 4 4 4 4 5 5 6 6 6 7 7 9 8 9 9 9 9 11 10 10 8 9 6 7 8 8 8 9 11 12 11 7 7 8 9 9 7 6 8 9
14 16 16 13 12 15 14 12 9 9 9 6 5 5 4 6 6 9 8 6 6 6 5 5 2 8 8 6 6 6 6 6 5 5 5 4 4 4 4 3 4 4 3 4 4 4 4 4 4 4 5 5 5 5 6 7 7 8 8 9 9 10 9 11 11 8 7 8 6 3 2 8 11 12 12 9 7 9 10 7 7 7 4 5 8
10 11 13 12 13 17 16 15 13 13 12 9 7 5 4 7 8 9 7 7 7 7 7 5 3 10 9 4 5 5 7 6 5 4 4 3 3 4 3 4 3 3 3 3 3 4 4 4 4 4 5 5 5 5 6 7 7 8 8 9 9 9 9 9 10 9 9 6 7 7 6 6 10 9 9 12 12 7 6 8 7 7 6 8 7
13 14 14 12 12 15 17 16 13 12 12 9 8 7 9 8 7 6 6 6 5 7 6 5 6 12 4 5 5 5 5 6 6 5 3 3 3 3 4 3 3 3 2 4 3 4 4 4 4 5 5 5 5 5 6 7 8 8 9 9 9 8 8 8 10 9 8 8 8 8 6 3 4 9 12 11 11 12 13 9 6 9 6 5 7
14 13 14 13 14 13 15 15 12 13 12 11 10 7 6 7 6 5 5 5 5 5 4 6 11 6 4 5 6 5 6 5 4 3 4 3 3 2 3 3 2 2 3 4 3 4 4 4 5 5 5 6 6 6 7 8 9 9 9 9 10 9 8 8 8 8 8 8 9 9 9 9 7 6 8 6 7 11 11 9 11 7 6 7 7
13 13 13 12 12 13 11 11 12 12 12 12 10 7 5 5 5 6 6 2 1 3 3 9 6 4 5 6 6 5 4 4 4 4 3 3 4 2 2 3 2 3 4 4 5 6 6 6 6 6 6 6 6 7 8 8 9 9 9 9 10 10 8 7 8 8 7 8 8 8 9 10 9 8 8 10 9 6 9 12 11 12 12 7 4
12 13 14 14 13 14 14 14 13 13 11 10 8 9 5 7 6 5 4 5 4 4 2 2 3 4 6 6 5 6 5 4 4 3 3 2 3 2 2 3 4 4 3 4 6 6 5 6 5 6 6 6 7 7 7 8 8 8 9 10 10 10 9 9 8 8 8 8 9 9 9 8 9 10 11 11 9 9 12 11 10 8 10 14 9
13 13 14 15 14 13 14 16 14 14 13 11 8 8 7 6 6 8 5 6 5 6 4 5 4 6 7 7 5 4 4 4 4 4 3 3 3 2 3 3 4 4 3 4 6 6 5 6 6 6 7 7 7 7 6 7 8 8 8 8 9 10 9 10 9 9 11 9 10 9 9 9 9 7 9 6 7 7 8 12 11 10 10 10 10
11 12 14 14 14 14 13 16 15 15 12 12 12 11 9 4 5 6 8 5 7 9 9 7 6 7 6 5 4 3 4 5 5 4 4 3 3 3 3 4 4 4 4 6 6 7 6 6 6 6 6 6 7 7 7 8 7 8 8 9 9 10 10 10 9 11 10 11 10 10 10 11 7 8 8 8 10 9 9 10 10 9 10 11 9
12 13 13 14 14 13 15 16 17 13 14 14 13 13 11 8 7 8 8 7 10 9 7 7 7 6 5 5 5 5 5 5 5 4 4 4 4 5 4 4 4 3 5 6 6 7 6 6 6 7 7 7 7 8 8 8 8 8 9 9 10 9 10 11 11 12 11 13 12 11 12 11 10 8 9 7 7 8 10 10 10 10 10 11 10
13 13 14 15 15 15 14 14 16 16 15 13 11 13 12 12 12 13 14 11 8 8 7 8 6 5 5 5 5 5 5 5 5 4 4 5 5 5 5 4 4 5 5 6 6 6 6 6 7 7 7 7 8 8 7 7 8 8 8 10 10 10 11 11 11 13 12 13 12 11 11 10 11 11 10 9 9 8 8 7 9 13 11 10 10
13 14 14 15 16 14 14 13 15 15 17 15 14 12 12 12 13 12 12 11 9 9 8 7 6 5 5 6 6 6 6 6 5 5 4 5 6 5 5 5 5 5 5 5 6 6 6 7 7 8 8 7 8 8 8 8 9 9 9 8 9 8 9 11 10 11 11 13 12 12 10 10 10 10 10 9 9 9 9 8 7 7 9 12 11
15 15 14 14 14 13 12 13 13 15 14 14 14 14 14 12 12 12 11 10 9 8 8 7 6 6 7 7 7 7 7 7 6 7 7 6 5 6 6 7 6 6 5 5 5 6 7 7 7 7 8 8 8 8 8 8 9 8 7 9 10 9 9 10 10 10 10 10 10 12 10 9 10 10 10 10 10 10 10 10 10 9 9 9 10
15 16 15 15 13 14 12 12 13 14 16 15 14 13 12 11 12 12 11 11 9 8 8 7 7 7 8 8 7 7 7 6 6 7 6 6 6 6 6 6 6 5 5 4 6 7 7 8 7 7 7 8 8 7 8 8 7 7 9 8 9 9 9 9 10 10 10 9 10 11 11 10 11 11 10 10 10 11 10 11 11 10 7 8 9
16 16 15 14 13 14 13 14 14 14 14 16 14 14 13 13 12 11 10 10 9 7 7 7 7 6 6 6 7 7 7 6 6 7 7 6 7 8 7 7 6 6 6 6 6 7 7 7 7 7 7 8 8 8 8 8 9 8 8 9 11 11 10 10 9 10 9 10 12 13 12 11 12 11 11 10 11 11 11 11 11 11 9 6 9
16 16 16 13 14 15 14 13 14 14 15 14 14 13 15 13 13 12 10 9 8 8 7 7 6 6 7 7 7 7 7 7 7 7 7 7 8 8 8 7 7 6 6 6 6 7 6 7 6 7 8 8 8 8 8 8 8 8 9 9 10 10 10 10 10 10 9 11 12 13 13 12 12 11 11 11 11 11 11 10 11 10 11 9 7
16 16 16 15 14 14 13 13 14 14 14 14 13 14 13 12 13 12 11 10 8 7 7 6 6 7 7 7 7 7 8 7 8 8 8 8 8 7 7 7 7 7 6 7 7 6 9 8 8 8 8 8 9 8 8 8 9 10 9 9 9 11 11 10 10 12 11 11 12 13 14 14 14 13 12 11 12 12 12 10 11 10 10 10 10
17 16 16 16 16 15 14 13 14 14 14 14 13 14 13 12 11 11 10 9 8 7 7 7 6 6 7 7 7 7 8 8 8 8 8 8 8 7 7 7 7 6 6 8 7 5 6 8 6 8 8 9 9 9 9 8 9 9 9 7 9 10 11 11 10 11 12 11 12 13 15 14 14 14 13 13 13 13 12 13 12 11 11 11 10
16 16 14 15 16 16 15 17 16 14 14 15 14 13 12 12 11 10 10 9 8 7 6 6 6 6 7 7 7 8 8 9 9 8 9 9 8 8 7 7 7 7 7 7 7 8 7 5 10 9 8 8 9 9 8 9 9 9 9 9 9 10 10 11 11 12 12 12 13 13 14 14 12 14 14 13 14 14 12 12 13 11 11 11 11
16 14 13 15 15 14 13 15 15 15 16 15 13 12 12 11 10 10 10 9 8 7 6 7 6 7 8 8 8 8 9 9 9 9 9 8 8 8 7 8 7 7 7 4 5 7 8 10 9 8 8 8 8 7 9 9 9 9 9 10 10 10 10 10 10 11 11 11 12 13 14 14 14 14 14 13 13 14 13 12 12 11 11 11 11
15 16 15 15 16 17 16 16 16 16 15 14 13 13 12 11 10 10 9 8 8 7 7 7 7 9 8 9 9 9 9 9 10 9 9 9 8 8 7 8 7 7 7 6 8 7 8 7 4 9 8 8 8 8 9 9 9 9 10 9 9 9 10 10 9 10 11 11 11 12 14 14 14 14 14 14 14 16 14 14 14 13 12 11 10
17 17 16 18 18 16 15 15 15 15 15 14 13 13 12 11 10 10 9 8 8 8 8 8 8 9 8 9 9 10 10 10 10 10 9 8 8 8 8 7 7 8 8 7 8 8 8 8 12 10 9 9 8 9 10 10 9 10 9 9 9 9 9 10 11 11 11 10 10 11 12 13 14 13 13 14 14 16 14 15 15 14 13 12 12
18 17 16 16 17 18 18 16 15 15 15 14 13 13 12 11 11 10 9 8 7 7 8 8 9 9 9 9 9 10 9 9 9 9 8 8 8 8 8 8 7 8 8 8 8 9 10 9 8 9 9 10 10 10 10 11 9 9 9 9 9 9 9 9 10 10 10 9 10 10 11 12 13 13 13 13 14 15 13 15 15 14 14 13 12
14 17 18 19 17 18 18 17 16 15 15 14 12 12 12 12 11 10 8 7 7 8 8 9 9 9 9 10 10 10 10 10 9 9 9 9 8 8 8 8 8 9 8 10 10 9 8 9 9 9 10 10 10 11 12 12 12 8 9 9 10 9 9 9 10 10 10 10 10 10 10 10 9 9 10 11 12 12 12 14 14 14 14 14 12
16 16 16 17 18 18 18 18 16 16 16 14 12 12 12 12 11 10 8 8 8 8 9 9 9 9 9 10 10 10 10 10 10 10 9 9 9 9 9 9 8 9 8 9 9 9 9 10 10 10 10 10 10 10 9 10 10 12 8 8 9 10 10 10 9 10 10 11 10 9 10 10 6 6 7 8 9 8 10 12 14 15 15 14 13
17 16 16 15 16 18 18 18 17 18 15 12 12 10 10 11 11 10 9 9 9 9 9 9 9 8 9 10 11 10 10 10 10 10 9 9 9 9 9 9 9 9 9 9 9 9 9 9 10 10 10 9 9 8 12 16 14 10 7 8 8 9 10 9 9 9 10 10 11 10 9 10 5 2 3 3 6 9 12 11 11 13 14 15 14
17 18 17 17 19 18 18 18 18 16 14 11 8 8 9 9 9 11 10 10 9 9 9 10 10 10 11 11 11 11 11 11 10 10 9 10 10 9 9 10 10 10 10 9 9 9 9 9 10 10 10 9 9 8 16 16 17 18 11 8 9 9 10 10 10 10 10 10 10 11 10 11 13 8 2 5 2 3 8 11 11 11 9 11 14
17 17 18 18 18 17 13 15 14 14 13 11 10 10 9 9 7 7 8 8 9 10 11 11 11 12 11 11 11 12 11 11 11 11 10 10 10 10 10 10 10 10 9 9 9 9 9 9 9 10 10 9 9 13 17 17 17 17 15 8 9 9 9 10 10 10 10 10 11 10 10 9 10 12 13 9 1 8 6 9 10 11 12 10 8
12 14 16 16 15 14 14 14 14 14 13 12 11 11 11 11 10 8 8 9 10 11 11 12 12 12 12 11 12 12 12 11 11 11 10 10 10 10 10 11 10 10 10 9 9 9 9 9 9 10 10 9 9 15 15 17 16 17 16 11 10 10 10 11 11 11 11 11 10 10 10 10 9 15 14 13 14 3 9 9 11 10 11 9 10
14 16 17 17 15 13 13 15 15 15 15 15 13 13 12 11 12 11 11 11 12 12 12 13 13 12 12 12 12 12 12 11 10 10 10 10 11 11 10 10 10 10 10 9 10 10 9 10 9 9 9 8 9 12 14 16 15 17 15 12 8 10 11 12 12 12 11 11 11 10 11 11 11 13 13 15 14 14 9 9 11 11 10 11 9
17 17 19 21 18 15 16 16 15 15 15 13 12 12 12 12 12 12 11 11 12 12 12 12 13 13 12 12 12 12 12 11 12 11 10 11 11 10 11 10 9 9 9 8 9 9 8 9 9 8 8 8 7 14 14 15 15 15 16 10 8 7 9 10 11 12 12 12 11 10 11 11 12 12 13 15 14 14 9 9 10 10 11 10 8
19 20 20 17 18 18 18 17 15 15 14 13 12 12 12 12 12 12 12 12 13 13 13 12 12 12 13 12 12 12 12 12 12 11 11 11 10 10 10 10 9 9 8 8 8 8 9 9 9 8 8 8 9 15 14 15 16 16 18 3 8 8 8 9 10 12 13 12 12 12 11 12 12 13 17 21 18 15 9 10 10 10 11 12 7
18 18 17 16 17 17 17 16 16 15 15 14 13 13 12 12 13 12 13 13 13 13 13 13 13 12 12 12 12 13 12 12 12 12 11 10 10 10 10 9 10 9 8 8 8 8 8 8 9 8 8 8 9 13 15 15 16 17 13 5 6 7 7 8 8 9 11 12 13 13 12 11 12 13 17 20 21 20 10 11 11 11 10 11 13
18 17 18 17 15 16 17 16 17 16 15 14 13 13 13 13 13 13 14 14 13 13 13 13 13 13 12 12 12 13 13 12 12 11 10 9 9 8 9 9 9 9 9 8 8 9 9 9 9 9 8 8 8 12 15 16 16 17 15 4 6 5 6 8 8 8 8 10 12 15 15 12 12 13 17 18 20 16 11 12 11 11 12 13 12
17 18 20 19 17 18 19 18 17 16 15 15 15 14 13 13 13 14 14 14 14 14 14 13 13 13 13 12 12 12 12 12 11 10 9 9 9 9 9 9 9 9 9 8 8 8 9 8 8 8 9 9 8 10 14 15 16 16 14 5 7 6 6 6 6 8 8 8 9 11 15 13 11 13 17 17 19 16 11 12 11 11 11 12 11
17 16 17 19 19 18 18 18 17 16 16 15 15 14 13 13 13 13 13 13 13 14 13 13 13 13 12 12 11 12 11 11 11 10 9 8 8 9 9 9 8 8 8 8 8 8 9 8 7 7 7 8 8 9 12 15 16 17 19 11 5 5 6 7 7 7 7 8 9 9 11 15 16 15 16 17 17 18 12 12 11 11 10 12 12
17 17 16 16 17 18 18 18 16 16 15 14 14 14 13 14 14 14 14 12 12 13 14 14 13 13 13 13 12 11 11 11 10 9 8 8 8 9 9 9 8 8 8 8 9 9 9 9 8 8 9 9 8 8 10 15 14 16 17 15 5 8 6 6 6 7 7 8 8 8 9 13 15 15 14 16 17 16 14 11 12 10 9 11 11
13 14 17 18 16 17 17 17 16 16 16 14 14 14 14 14 14 15 14 12 13 14 13 13 14 13 13 12 12 11 10 9 9 8 8 8 9 9 9 9 8 9 9 9 8 8 8 8 8 8 8 8 9 11 8 12 13 13 14 16 9 8 10 5 7 7 7 7 8 8 8 10 14 13 13 13 15 15 15 11 12 15 16 17 9
16 18 17 18 18 18 17 17 15 15 14 13 14 14 14 14 14 15 14 13 14 14 15 14 14 14 12 12 11 12 10 8 8 8 9 10 9 9 9 9 9 9 9 9 8 8 8 8 7 7 7 8 8 8 10 9 11 12 13 14 14 11 14 7 7 7 7 7 7 7 8 12 13 12 11 12 11 14 12 11 15 15 15 15 10
17 18 18 17 18 17 16 16 14 14 13 13 13 14 14 15 16 15 14 12 14 14 14 14 13 13 12 12 11 10 9 9 9 8 9 10 10 9 9 8 8 8 8 8 7 7 7 7 7 7 7 7 7 7 8 8 9 11 11 12 13 14 14 8 8 8 8 7 7 7 7 12 12 11 10 9 8 8 8 12 14 14 14 12 10
19 18 18 17 17 18 17 16 14 15 13 14 13 15 16 17 15 15 13 13 14 14 13 13 12 11 11 11 10 10 10 9 8 8 9 10 10 9 8 8 7 7 7 7 7 7 6 7 7 7 7 7 7 7 7 7 8 10 9 10 12 13 13 10 8 8 8 7 5 8 10 9 11 11 8 9 10 11 11 10 11 12 13 11 11
18 18 17 17 17 17 17 17 16 15 14 13 13 15 17 16 15 16 16 15 13 13 12 13 13 11 10 11 11 10 10 9 8 8 8 8 8 8 7 6 6 6 6 6 7 7 6 7 6 6 6 6 6 6 6 6 6 8 7 7 8 8 8 9 8 7 6 5 1 7 10 8 4 6 5 8 8 9 12 9 9 12 11 11 11
20 20 17 18 19 18 18 17 16 14 13 12 14 15 15 15 16 16 16 15 15 13 12 12 13 12 11 10 9 8 8 8 8 8 8 7 7 7 6 6 6 5 5 6 7 6 7 6 6 6 5 5 5 4 4 5 4 4 6 7 7 6 7 7 7 5 7 2 1 2 4 6 10 12 12 11 6 7 10 10 9 10 10 10 10
17 13 13 18 19 19 20 19 17 15 14 14 15 16 16 16 16 16 16 15 15 13 12 12 12 11 11 10 9 7 8 8 8 8 7 7 7 7 6 7 6 3 6 7 6 6 7 7 6 6 6 6 5 5 6 6 7 8 7 2 3 3 2 1 6 6 7 7 5 1 5 3 3 6 5 6 7 7 8 9 9 9 10 10 10
20 18 17 18 19 20 21 19 17 15 16 16 17 16 17 17 16 16 16 16 13 13 13 13 11 10 10 9 9 8 8 8 9 11 12 11 7 4 9 9 9 7 7 2 6 7 6 6 5 5 6 6 6 6 5 5 5 6 5 7 6 5 6 4 6 8 7 6 3 4 5 6 6 4 4 7 7 8 8 8 9 9 9 9 9
18 14 16 17 19 20 19 18 16 16 16 17 17 16 16 15 14 16 16 14 13 12 13 12 10 9 9 9 7 6 7 8 9 9 10 10 15 19 13 7 7 9 13 17 14 8 6 6 9 9 8 6 7 6 5 6 8 8 8 8 6 7 7 7 9 13 9 3 5 3 5 5 6 6 5 5 6 7 7 7 8 8 8 9 9
16 18 17 17 18 18 18 18 16 16 16 16 16 16 15 15 14 14 14 14 14 11 10 10 10 9 9 8 8 8 8 8 8 9 8 9 9 11 14 13 11 11 13 15 16 17 19 17 9 9 10 15 12 8 7 5 5 6 6 7 7 8 9 9 9 5 4 2 3 3 3 3 4 6 4 4 4 6 5 4 6 7 7 8 7
Wind_Direction
41 56 58 61 33 17 5 60 84 86 67 146 150 152 152 144 121 122 142 109 139 113 119 134 175 263 181 204 213 230 178 132 124 120 113 103 101 99 89 87 72 49 17 21 350 347 341 338 341 334 335 329 330 323 321 318 317 316 312 310 310 309 304 305 303 305 302 296 290 287 286 280 274 263 259 265 260 267 281 270 255 258 256 246 243
130 105 114 111 130 123 102 50 74 60 329 308 138 118 107 99 81 44 139 114 132 126 129 111 242 267 209 219 196 192 163 148 131 116 102 100 102 86 82 64 46 50 27 15 2 352 345 343 335 330 333 325 324 321 316 311 314 314 319 312 312 311 309 309 306 303 298 302 309 306 293 286 269 259 254 255 254 233 262 279 293 284 270 268 258
125 114 112 112 125 139 102 106 113 120 187 221 41 123 97 104 153 171 146 150 146 128 142 143 319 249 254 256 213 134 85 96 111 108 105 100 88 83 64 53 50 48 42 25 10 350 343 335 333 333 326 330 322 322 321 318 316 318 316 315 316 314 306 305 312 321 309 317 303 298 303 313 307 288 267 279 285 296 283 288 279 282 297 296 284
143 141 127 126 130 133 110 109 130 159 156 130 185 145 132 127 138 145 155 162 159 172 148 80 238 279 227 210 174 125 113 111 101 109 99 103 96 74 71 62 55 40 32 353 2 354 347 342 340 337 336 333 326 320 322 317 325 322 322 323 319 312 316 313 320 328 320 317 316 315 306 305 303 311 335 279 213 237 260 253 249 257 276 281 274
147 147 146 149 150 148 138 132 156 156 127 164 171 158 150 140 144 161 164 171 169 149 156 141 225 242 245 167 106 113 124 124 121 110 116 101 103 89 75 54 32 37 13 7 1 354 347 351 343 339 334 335 328 325 325 327 322 324 326 322 321 315 313 315 314 328 319 310 297 307 305 299 304 311 321 301 291 274 247 252 249 247 261 269 264
152 155 160 157 137 129 134 141 142 130 149 162 146 149 150 141 164 154 167 165 162 164 159 117 170 273 236 166 150 138 137 138 133 131 122 120 97 91 84 41 37 28 13 1 3 353 354 352 351 340 336 328 326 325 317 317 320 318 325 320 313 315 318 312 317 323 329 323 304 289 231 293 309 310 313 308 322 294 288 257 254 248 220 251 273
158 152 148 158 142 136 144 154 160 159 158 148 150 126 128 157 164 160 166 168 159 161 157 131 216 251 236 162 140 137 126 118 110 89 91 94 103 92 73 68 23 34 29 358 10 9 5 353 345 336 335 325 327 318 316 320 323 326 325 319 321 320 322 319 321 329 334 334 333 319 310 314 301 304 307 312 305 303 305 301 277 256 233 240 256
162 160 153 155 155 145 151 157 163 156 141 134 129 132 152 151 160 161 175 161 149 165 160 156 210 233 174 141 119 113 107 107 103 106 94 81 98 76 74 68 46 35 20 34 15 10 8 350 345 344 341 337 333 330 329 331 328 328 329 318 323 322 325 327 328 337 336 332 336 320 298 252 280 292 292 296 295 304 308 304 295 298 277 232 236
163 159 155 151 156 156 148 154 147 134 132 121 124 136 161 154 151 153 176 156 159 168 161 184 225 199 163 126 109 104 106 111 117 122 120 102 76 78 72 60 66 44 42 38 16 10 10 356 356 351 348 345 343 334 343 334 333 331 328 325 329 327 332 336 332 333 332 332 331 332 322 324 304 284 271 276 299 312 302 304 313 310 274 271 250
167 152 153 145 151 151 145 137 131 127 127 118 118 128 146 135 128 168 150 139 226 146 172 220 177 121 116 107 97 102 116 116 123 123 114 106 96 81 74 87 55 63 46 35 14 17 13 11 3 2 354 357 347 350 345 342 337 333 329 329 332 332 333 340 336 328 330 332 334 331 331 331 328 337 340 338 322 295 297 309 313 317 310 302 254
165 151 151 148 142 142 144 138 131 122 114 113 138 139 153 139 169 188 147 163 173 109 257 236 147 116 105 92 90 112 113 134 141 117 112 104 108 101 98 82 57 46 32 42 35 16 16 20 8 1 4 4 1 353 351 338 337 336 332 336 339 340 340 342 340 332 334 338 341 345 337 332 333 332 339 337 338 326 324 318 312 305 304 301 294
161 158 156 150 146 153 149 138 133 129 121 133 144 134 141 153 157 140 193 158 144 125 188 202 134 101 84 77 85 101 130 128 116 118 119 107 98 101 95 80 70 70 32 34 34 16 13 18 12 8 15 10 4 354 348 341 338 334 339 339 344 342 351 348 348 343 344 350 352 350 336 333 335 337 335 320 316 329 327 314 317 317 307 293 296
160 163 154 154 152 156 151 142 140 138 125 143 150 140 138 178 165 146 150 163 139 169 186 143 105 85 92 96 100 109 109 114 120 127 124 112 88 70 57 67 59 50 43 37 26 19 20 20 16 17 14 11 5 357 349 346 340 338 342 349 349 349 352 351 354 353 355 1 353 349 344 341 349 349 321 332 348 331 315 314 325 321 309 308 297
169 165 157 153 155 159 151 152 147 134 143 158 158 145 149 161 164 162 155 187 166 158 127 111 96 96 106 113 119 122 115 114 115 111 88 76 76 78 70 66 63 50 45 41 29 23 21 21 24 24 17 14 6 359 353 355 349 342 349 359 358 357 355 357 7 4 9 5 360 354 348 344 347 350 342 345 335 340 337 334 321 321 322 322 320
172 174 162 159 160 155 158 156 150 142 158 160 151 153 148 155 165 161 155 164 136 117 115 109 111 118 116 120 119 122 117 105 89 70 57 72 70 82 71 58 55 54 43 40 33 34 29 32 33 26 19 12 9 9 2 353 351 345 6 10 2 360 359 8 8 8 8 4 0 356 347 347 348 348 343 339 330 335 331 325 320 323 328 332 335
179 170 158 163 157 159 161 159 149 141 155 149 151 153 148 148 152 160 140 127 121 128 123 119 111 101 93 95 105 102 97 106 111 102 90 68 75 79 76 67 51 53 51 40 40 35 35 32 35 28 21 14 14 12 2 358 353 12 13 14 6 2 4 14 10 7 8 2 1 358 353 351 350 346 340 337 336 332 328 319 312 313 329 329 336
171 161 155 155 155 162 161 154 146 145 150 145 146 150 145 150 149 142 119 119 127 121 117 110 108 115 102 99 103 108 105 88 83 90 89 84 84 78 71 65 65 56 59 50 45 46 41 36 35 28 24 20 19 16 14 13 15 20 10 14 13 6 10 19 13 9 9 5 4 4 359 352 353 344 344 345 340 338 333 330 333 328 328 329 333
169 151 155 153 157 160 152 150 147 148 140 137 138 138 141 136 130 122 127 129 127 120 115 117 114 107 109 104 98 96 94 93 101 104 102 91 85 82 76 69 60 58 58 50 50 47 44 40 36 34 31 32 30 25 23 25 24 26 21 20 12 12 15 17 19 10 11 5 2 8 3 4 357 351 351 349 345 343 340 336 334 331 354 348 341
159 153 157 159 158 159 157 156 154 147 140 137 141 138 136 135 128 128 127 123 119 116 118 115 115 111 109 108 104 98 97 94 90 90 86 86 83 76 71 71 67 62 59 57 56 56 53 53 45 43 39 38 34 28 23 26 27 27 15 19 20 20 21 18 21 15 11 8 6 9 7 3 359 358 355 355 354 352 347 341 339 345 332 2 352
162 156 161 158 160 159 155 151 146 144 138 132 130 131 130 128 127 125 124 123 122 120 117 111 109 115 113 108 101 95 89 96 98 92 87 81 78 81 77 70 67 65 65 60 59 61 64 56 51 39 40 39 34 28 23 21 28 29 25 25 24 22 25 24 24 24 18 13 8 11 11 5 359 1 359 2 0 355 353 351 352 346 342 346 342
162 160 161 164 163 156 150 146 141 135 132 134 133 129 127 130 131 132 131 128 124 120 112 113 118 117 115 106 104 104 99 98 93 90 90 87 84 80 76 77 72 68 68 65 59 54 53 47 39 35 31 36 35 32 26 22 26 31 32 29 26 25 29 30 23 26 26 18 14 12 12 10 7 5 3 3 3 358 0 1 360 356 352 344 343
163 165 164 163 159 155 147 142 142 139 141 141 134 132 135 136 135 132 130 127 126 123 119 118 110 109 108 109 109 112 110 106 102 94 90 85 81 77 81 80 74 69 66 66 64 58 58 53 48 34 34 30 36 38 33 33 31 31 35 33 28 28 26 28 27 26 24 22 17 14 13 13 6 9 6 7 0 7 2 4 8 2 354 354 2
162 163 161 158 155 155 146 146 146 141 137 139 136 136 138 138 136 133 128 127 125 122 122 122 121 117 115 115 110 110 112 108 104 98 90 86 82 85 85 85 84 76 66 64 55 52 42 41 52 50 34 33 40 41 41 39 37 35 35 36 34 30 29 29 31 26 26 24 20 18 18 12 7 9 7 8 10 2 5 11 10 7 2 2 9
153 156 155 155 147 144 144 145 145 145 147 142 139 139 139 140 136 131 129 129 125 122 126 124 121 120 117 119 121 115 109 107 99 92 91 90 92 89 86 83 82 80 75 74 75 56 51 41 48 48 46 45 43 42 45 44 38 32 33 33 34 32 33 35 31 31 30 26 23 24 20 16 13 14 11 5 3 3 3 4 9 11 6 12 19
154 157 146 140 143 149 149 148 147 150 149 147 144 142 141 139 133 129 128 128 123 122 126 128 122 121 122 128 120 112 108 102 101 99 99 98 90 85 87 88 85 81 71 56 49 66 62 54 54 59 48 43 25 36 39 38 37 32 28 29 30 33 31 34 33 40 41 33 29 27 22 20 19 18 15 8 5 7 7 6 359 2 6 4 12
157 154 152 154 153 152 151 150 151 153 152 149 145 142 141 138 131 127 130 131 129 131 133 138 133 130 133 126 117 113 111 107 103 101 101 101 99 96 91 87 86 87 83 78 70 59 59 46 42 47 43 36 26 17 15 11 35 31 34 28 27 33 34 29 32 40 42 41 37 31 29 26 24 26 21 16 10 9 8 8 4 358 359 1 2
152 155 157 153 157 155 151 150 151 152 149 147 145 143 141 134 130 130 130 130 131 135 140 133 135 139 136 129 120 118 115 110 107 104 104 102 99 100 97 95 95 89 91 91 79 69 62 60 56 49 43 38 32 25 16 1 19 40 30 33 29 27 40 41 35 38 45 49 41 36 30 26 25 23 24 22 19 17 15 9 5 1 358 359 5
154 156 161 162 155 151 147 147 149 149 147 144 144 142 137 135 133 132 131 130 136 140 142 142 143 140 135 129 124 119 112 110 107 108 108 107 106 102 98 95 95 91 81 75 72 75 68 60 57 52 46 40 36 31 18 5 355 25 40 32 31 29 32 41 41 34 35 39 46 43 31 30 26 21 19 28 26 25 19 19 11 5 2 3 5
169 162 161 160 154 151 147 145 146 145 142 138 131 135 141 138 135 131 131 136 141 143 146 149 145 142 139 133 125 118 115 114 112 111 112 111 110 109 107 104 96 91 85 83 84 77 72 70 62 57 51 45 42 32 21 359 355 350 46 39 40 37 36 38 39 41 37 32 32 41 41 32 41 35 11 15 26 28 34 30 24 15 10 10 10
168 164 161 158 151 148 147 147 144 143 136 131 134 136 138 138 134 133 139 145 146 150 151 144 140 141 140 134 125 122 120 117 117 117 117 116 111 107 106 101 97 90 84 80 77 73 72 70 68 62 57 49 42 33 354 355 357 353 18 46 44 39 40 39 36 35 35 34 31 27 41 57 75 71 46 30 30 46 60 59 45 38 23 20 19
161 161 158 152 149 147 147 144 142 141 135 126 109 122 118 117 135 140 144 148 149 148 144 147 147 149 141 132 128 124 123 122 120 121 122 120 113 110 105 99 94 90 85 82 77 76 73 71 71 66 61 55 46 12 357 2 354 354 350 46 43 43 38 37 37 34 32 29 26 27 19 27 25 14 124 148 117 26 81 75 72 65 47 31 24
163 159 153 150 150 144 135 138 138 130 117 118 124 121 122 123 112 109 118 137 144 147 150 150 147 145 140 135 132 129 126 126 128 126 125 120 120 115 108 103 100 93 88 86 82 78 78 75 72 70 64 60 46 13 2 358 355 350 350 12 52 45 37 39 35 32 34 27 24 24 22 20 24 10 5 0 114 196 138 109 92 81 68 54 43
151 147 148 134 126 119 117 119 119 126 126 122 122 127 138 136 129 125 134 142 144 150 152 151 147 145 140 137 134 132 130 130 127 126 123 121 118 117 111 105 99 96 96 89 85 85 81 76 72 68 66 56 43 15 358 1 354 349 346 349 64 47 43 44 36 34 32 29 25 24 22 21 22 11 8 356 345 231 195 182 156 123 92 66 47
155 154 148 138 131 133 140 140 136 133 137 145 141 143 144 141 141 146 150 150 151 154 154 151 147 144 142 137 135 134 131 127 125 125 126 123 121 115 111 106 103 99 95 93 88 85 81 76 74 74 70 56 35 7 0 1 355 348 343 329 74 59 55 48 42 36 32 27 25 25 22 22 20 15 8 354 345 339 25 28 29 22 31 36 45
150 149 145 146 147 145 143 142 143 143 144 145 144 140 141 143 146 149 149 149 151 151 152 151 146 144 140 138 138 134 129 130 128 129 128 125 121 118 110 105 105 104 102 97 90 83 78 76 76 74 71 58 37 11 7 360 358 346 340 314 64 61 62 58 49 44 37 30 23 22 25 24 19 18 0 351 345 336 5 28 33 27 23 38 35
157 150 151 150 150 148 151 148 145 147 147 145 141 144 144 146 149 149 148 150 151 151 149 148 145 146 141 142 141 132 129 133 132 131 130 127 123 114 108 105 101 96 93 94 91 88 83 80 76 72 68 61 43 18 6 3 357 354 331 49 65 64 60 61 59 53 46 38 27 20 23 18 18 16 357 350 349 339 15 20 25 30 31 24 40
151 147 147 149 146 150 150 148 148 147 147 146 146 147 145 146 150 150 150 150 151 150 148 146 144 142 143 143 136 133 135 134 133 132 128 124 121 117 111 108 103 99 96 91 90 84 83 80 76 71 66 63 48 19 10 5 358 358 343 57 71 69 64 60 61 62 57 50 38 27 21 19 14 14 354 353 355 341 26 21 28 23 29 41 17
140 150 148 148 152 155 146 149 147 146 146 147 148 147 148 149 150 152 152 153 152 149 149 146 143 141 140 139 139 137 137 134 133 128 125 121 117 112 111 107 106 106 100 96 90 86 82 74 68 63 58 65 52 30 15 6 4 357 347 12 76 71 73 75 63 60 67 62 57 43 27 23 16 9 353 356 358 349 28 20 27 23 25 29 33
152 157 155 153 148 147 147 146 145 147 148 148 145 147 151 151 152 153 154 153 151 147 148 144 143 142 140 138 137 137 136 133 127 124 124 124 119 114 108 106 106 108 106 105 100 96 93 86 79 75 60 59 54 39 19 9 8 4 358 347 71 68 56 59 72 70 55 56 60 50 34 19 9 359 357 359 359 358 20 22 20 21 18 16 4
157 158 138 131 137 147 149 147 147 146 147 146 149 152 150 151 151 151 152 152 150 148 143 143 142 139 138 136 136 135 129 127 127 125 124 120 123 118 114 115 117 112 110 107 104 96 91 85 81 70 57 47 52 46 28 16 14 8 5 354 63 66 72 68 58 55 63 59 51 51 37 15 360 357 357 0 358 358 358 25 16 20 5 5 335
157 146 137 137 145 152 151 149 146 146 147 149 151 149 151 150 150 149 148 148 147 143 143 142 139 138 139 136 135 129 126 124 122 121 125 129 122 114 113 113 108 104 104 103 105 105 97 94 86 76 68 55 33 38 45 27 19 17 14 2 54 26 31 62 61 61 58 54 55 48 45 9 354 349 352 356 359 356 354 16 10 360 338 315 304
133 127 137 144 151 153 148 143 144 148 149 150 149 150 152 150 150 148 145 146 146 143 141 141 140 139 135 130 124 124 124 122 123 126 132 123 115 111 111 112 110 113 116 118 117 111 105 100 94 83 80 75 53 28 37 41 25 23 22 21 20 25 350 70 60 68 59 65 59 52 40 359 347 343 342 350 357 353 4 17 353 344 337 341 346
127 138 143 153 152 150 146 144 148 150 152 152 151 150 149 152 149 146 147 148 146 144 143 140 138 135 131 126 122 125 125 124 127 133 130 120 114 112 110 111 119 121 120 121 117 120 120 114 107 98 93 85 77 60 27 44 36 26 28 26 21 17 351 38 63 66 63 64 61 53 30 351 339 336 330 332 354 347 15 359 347 345 344 346 4
137 144 152 159 149 146 145 148 150 153 149 151 153 150 151 151 149 149 144 139 145 142 139 136 136 133 124 125 129 127 121 122 131 133 122 114 113 118 124 127 130 129 132 130 126 128 124 122 118 111 104 98 86 82 64 47 49 35 38 36 32 23 10 41 57 69 61 55 54 37 355 324 325 331 323 309 338 356 343 334 352 348 360 6 21
149 153 155 154 150 149 149 151 155 153 152 152 153 153 150 150 150 150 141 133 140 138 135 132 128 124 127 129 124 123 125 128 134 131 122 119 122 129 131 139 143 140 138 136 134 130 121 117 119 116 115 113 104 97 94 79 79 74 60 54 51 44 31 30 76 64 65 53 350 310 304 314 312 330 330 15 22 1 350 317 351 6 21 26 22
154 155 159 155 153 152 152 154 158 156 151 152 151 152 152 149 151 151 150 146 138 130 129 131 129 131 131 128 126 127 131 140 136 127 122 124 128 134 137 143 140 135 134 133 134 127 123 119 115 118 115 120 129 126 122 127 141 127 125 116 108 104 106 87 95 108 118 154 292 282 274 300 303 330 338 29 27 11 352 351 25 24 32 29 27
160 161 159 155 153 155 156 160 156 152 152 153 150 151 151 150 151 149 149 148 146 137 133 133 132 132 133 128 127 131 135 139 137 128 126 131 139 132 130 135 136 132 132 131 126 128 126 122 118 119 120 119 119 111 123 148 163 179 156 158 171 159 140 163 186 160 195 192 165 323 356 308 279 280 270 267 11 29 21 16 22 28 31 31 31
157 151 166 154 156 157 158 157 154 156 153 152 151 150 152 152 151 152 150 148 144 139 135 131 133 133 132 132 135 143 149 138 133 128 127 134 139 141 90 58 39 57 146 141 134 129 124 127 128 127 125 119 100 71 43 20 21 0 350 52 54 51 122 52 35 16 357 322 355 322 230 256 5 14 15 32 27 21 32 28 20 24 25 27 31
155 163 172 166 161 160 161 157 153 153 150 150 150 151 153 154 153 149 148 147 140 133 132 133 133 135 131 127 140 166 149 136 98 68 56 38 14 75 100 80 47 37 15 9 147 121 119 107 90 105 124 110 89 79 59 14 14 6 8 14 26 21 9 43 32 354 324 308 38 19 35 20 28 28 22 22 23 23 20 29 29 19 27 20 22
157 159 168 163 160 159 161 160 153 152 152 150 151 153 151 148 150 150 146 141 135 131 130 131 129 126 123 139 156 149 137 121 114 108 88 69 53 49 41 69 81 43 52 54 55 50 30 92 82 46 31 80 91 80 52 25 15 12 15 20 10 359 358 342 332 325 310 318 43 27 29 33 25 32 18 20 19 19 18 19 29 22 25 24 20
154 151 155 159 152 149 152 157 154 154 152 151 152 151 153 149 142 141 138 133 132 128 127 127 127 129 142 153 149 143 136 132 130 127 117 103 91 60 51 55 65 63 60 57 56 52 48 38 58 94 67 69 80 76 51 20 5 10 3 360 354 349 327 321 324 340 310 69 31 42 29 36 36 31 24 15 20 21 12 24 21 23 21 21 22